{"data":{"norad_id":68304,"epoch":"2026-09-20T01:42:33.511680Z","epoch_age_seconds":85415,"freshness":"FRESH","line1":"1 68304U 26057L   26263.07122120  .00022058  00000+0  68337-3 0  9991","line2":"2 68304  97.2847  28.4111 0000499 108.8250 251.3047 15.33455487 28448","mean_motion":15.33455487,"eccentricity":4.99e-5,"inclination_deg":97.2847,"raan_deg":28.4111,"arg_perigee_deg":108.825,"mean_anomaly_deg":251.3047,"bstar":0.00068337,"rev_number":2844,"period_min":93.9055624508,"perigee_km":465.17047463844,"apogee_km":465.85347080592,"semimajor_km":6843.6489727222,"source":"CELESTRAK","updated_at":"2026-09-20T09:00:43.855721Z"}}